Total_Precipitation_Accumulation
0.00 0.01 0.06 0.20 0.69 0.91 0.80 0.49 0.40 0.32 0.32 0.27 0.29 0.28 0.34 0.47 0.66 0.89 0.41 0.11 0.03 0.01 0.02 0.09 0.16 0.16 0.12 0.11 0.12 0.15 0.16 0.16 0.15 0.14 0.14 0.14 0.11 0.08 0.07 0.07 0.08 0.08 0.09 0.08 0.11 0.13 0.11 0.15 0.19
0.01 0.02 0.08 0.33 0.68 0.76 0.58 0.42 0.35 0.25 0.27 0.32 0.45 0.44 0.35 0.43 0.43 0.36 0.23 0.13 0.05 0.02 0.03 0.04 0.11 0.14 0.12 0.12 0.13 0.15 0.14 0.13 0.12 0.11 0.11 0.11 0.09 0.07 0.07 0.08 0.09 0.10 0.10 0.10 0.12 0.13 0.12 0.14 0.18
0.02 0.05 0.12 0.36 0.48 0.38 0.30 0.20 0.21 0.26 0.35 0.44 0.49 0.50 0.51 0.48 0.38 0.32 0.23 0.15 0.12 0.06 0.04 0.06 0.09 0.11 0.12 0.14 0.13 0.13 0.13 0.12 0.11 0.10 0.11 0.10 0.09 0.08 0.08 0.10 0.10 0.12 0.14 0.14 0.12 0.12 0.15 0.16 0.18
0.03 0.08 0.18 0.27 0.19 0.10 0.10 0.12 0.19 0.32 0.51 0.74 0.73 0.64 0.59 0.40 0.31 0.25 0.29 0.22 0.18 0.11 0.06 0.08 0.12 0.11 0.11 0.12 0.13 0.13 0.12 0.12 0.13 0.12 0.11 0.10 0.10 0.11 0.10 0.10 0.11 0.14 0.17 0.17 0.16 0.17 0.17 0.16 0.17
0.02 0.08 0.19 0.18 0.08 0.06 0.07 0.13 0.23 0.37 0.55 0.74 0.78 0.76 0.74 0.48 0.33 0.30 0.26 0.23 0.22 0.16 0.09 0.10 0.16 0.15 0.14 0.14 0.16 0.15 0.13 0.13 0.12 0.12 0.13 0.13 0.13 0.13 0.13 0.12 0.13 0.14 0.16 0.17 0.19 0.19 0.18 0.17 0.19
0.01 0.04 0.09 0.09 0.05 0.05 0.08 0.15 0.24 0.36 0.54 0.72 0.96 1.02 0.85 0.61 0.55 0.45 0.32 0.29 0.28 0.24 0.15 0.17 0.23 0.23 0.20 0.19 0.21 0.20 0.17 0.15 0.15 0.16 0.17 0.16 0.15 0.16 0.17 0.18 0.17 0.17 0.19 0.19 0.19 0.20 0.20 0.19 0.22
0.00 0.01 0.04 0.06 0.05 0.05 0.08 0.14 0.24 0.38 0.53 0.81 1.10 1.18 0.90 0.68 0.60 0.57 0.51 0.46 0.56 0.48 0.35 0.29 0.28 0.26 0.24 0.26 0.27 0.25 0.22 0.19 0.19 0.21 0.19 0.18 0.17 0.19 0.20 0.23 0.25 0.25 0.25 0.23 0.23 0.24 0.26 0.27 0.30
0.00 0.01 0.03 0.04 0.03 0.05 0.10 0.15 0.28 0.47 0.65 0.88 1.06 1.19 1.18 0.74 0.63 0.73 0.84 0.87 1.05 0.99 0.75 0.54 0.38 0.38 0.30 0.28 0.29 0.29 0.26 0.24 0.24 0.23 0.22 0.24 0.28 0.33 0.38 0.37 0.35 0.36 0.37 0.38 0.40 0.39 0.41 0.46 0.49
0.00 0.01 0.02 0.01 0.02 0.10 0.14 0.17 0.24 0.34 0.53 0.76 0.92 1.00 0.88 0.77 0.92 1.08 1.28 1.06 1.06 1.18 1.00 0.88 0.68 0.48 0.45 0.40 0.36 0.43 0.43 0.43 0.44 0.49 0.46 0.47 0.54 0.67 0.77 0.66 0.66 0.67 0.69 0.72 0.79 0.82 0.83 0.80 0.70
0.00 0.00 0.01 0.00 0.01 0.05 0.11 0.16 0.25 0.34 0.70 1.27 1.30 0.94 0.71 0.87 1.11 1.26 1.38 1.24 1.20 1.22 1.03 0.99 0.97 0.72 0.62 0.56 0.74 0.93 0.86 0.92 0.88 1.00 0.91 0.98 1.02 0.89 0.70 0.80 0.95 1.06 1.25 1.32 1.41 1.47 1.44 1.29 1.10
0.00 0.00 0.00 0.00 0.01 0.01 0.04 0.11 0.20 0.41 0.82 1.46 1.64 1.23 1.04 1.12 1.44 1.42 1.48 1.59 1.63 1.46 1.34 0.99 1.09 0.97 0.92 0.96 1.06 1.20 1.26 1.27 1.22 1.26 1.28 1.41 1.37 1.15 1.03 1.21 1.48 1.63 1.77 1.87 2.08 2.09 1.74 1.73 1.82
0.00 0.00 0.00 0.00 0.01 0.01 0.09 0.15 0.25 0.32 0.74 1.07 1.04 0.95 1.10 1.29 1.57 1.70 1.68 1.86 1.86 1.68 1.61 1.43 1.41 1.37 1.29 1.27 1.22 1.17 1.09 1.12 1.20 1.30 1.39 1.54 1.54 1.56 1.53 1.59 1.68 1.83 2.06 2.30 2.36 2.37 2.24 2.38 2.35
0.00 0.00 0.00 0.02 0.03 0.04 0.10 0.13 0.24 0.38 0.51 0.63 0.60 0.79 1.21 1.47 1.80 2.06 2.34 2.47 2.41 2.34 2.20 2.11 2.10 1.84 1.57 1.41 1.22 1.05 0.96 0.91 0.98 1.08 1.15 1.23 1.48 1.63 1.64 1.48 1.49 1.52 1.77 2.12 2.43 2.48 2.70 2.79 2.59
0.00 0.00 0.01 0.03 0.03 0.05 0.07 0.10 0.26 0.43 0.47 0.59 0.74 0.97 1.34 1.78 2.15 2.35 3.00 3.29 3.38 3.37 3.13 2.83 2.74 2.28 1.93 1.67 1.33 1.14 0.93 0.93 0.92 0.88 0.94 1.13 1.29 1.45 1.41 1.40 1.47 1.51 1.52 1.69 2.08 2.33 2.54 2.51 2.31
0.00 0.02 0.05 0.06 0.04 0.05 0.06 0.17 0.39 0.52 0.70 0.74 0.92 1.15 1.47 2.02 2.46 2.88 3.35 3.96 4.30 4.42 4.02 3.35 3.01 2.67 2.30 1.99 1.57 1.26 1.07 0.94 0.92 0.84 0.86 0.95 1.04 1.18 1.19 1.21 1.19 1.25 1.27 1.31 1.46 1.69 1.85 1.83 1.77
0.01 0.08 0.17 0.11 0.07 0.07 0.11 0.42 0.64 0.55 0.84 1.17 1.10 1.39 1.78 2.26 2.67 3.29 3.93 4.64 5.14 5.23 4.60 3.83 3.14 3.12 2.83 2.41 1.78 1.34 1.08 0.92 0.78 0.72 0.67 0.68 0.71 0.74 0.77 0.77 0.75 0.76 0.77 0.83 0.96 1.08 1.20 1.33 1.48
0.03 0.07 0.15 0.18 0.11 0.10 0.18 0.58 0.75 0.54 0.67 0.98 1.21 1.47 1.89 2.22 2.50 3.06 3.66 4.43 5.04 5.53 5.25 4.49 4.19 3.91 3.20 2.34 1.67 1.24 0.96 0.79 0.67 0.64 0.56 0.54 0.52 0.53 0.59 0.58 0.57 0.49 0.49 0.54 0.56 0.71 0.82 0.95 1.06
0.02 0.04 0.10 0.21 0.17 0.17 0.25 0.44 0.71 0.73 0.88 1.11 1.25 1.40 1.68 1.83 2.03 2.51 3.02 3.46 4.04 4.53 4.37 4.14 4.08 3.50 2.80 2.04 1.54 1.14 0.89 0.73 0.57 0.51 0.51 0.48 0.46 0.46 0.53 0.49 0.44 0.37 0.38 0.44 0.51 0.60 0.62 0.63 0.68
0.02 0.04 0.08 0.15 0.16 0.23 0.36 0.47 0.66 0.82 1.04 1.20 1.22 1.21 1.26 1.38 1.64 1.90 2.25 2.62 2.85 3.02 3.06 3.20 3.22 2.79 2.20 1.69 1.19 0.91 0.78 0.65 0.50 0.38 0.38 0.42 0.40 0.44 0.51 0.41 0.42 0.39 0.35 0.39 0.41 0.46 0.47 0.44 0.42
0.03 0.06 0.11 0.14 0.14 0.19 0.34 0.61 0.76 0.84 0.86 0.93 1.04 1.00 0.99 1.08 1.18 1.30 1.50 1.81 1.90 2.10 2.33 2.52 2.57 2.27 1.69 1.37 1.09 0.94 0.83 0.68 0.54 0.41 0.36 0.34 0.33 0.35 0.39 0.46 0.36 0.35 0.36 0.37 0.37 0.41 0.39 0.33 0.35
0.04 0.05 0.06 0.10 0.11 0.19 0.35 0.85 0.93 0.83 0.74 0.64 0.76 0.79 0.74 0.75 0.77 0.81 0.90 1.10 1.39 1.80 1.89 1.83 1.89 1.85 1.53 1.30 1.13 1.00 0.90 0.75 0.60 0.47 0.37 0.29 0.28 0.30 0.32 0.34 0.34 0.36 0.31 0.36 0.44 0.41 0.39 0.32 0.27
0.04 0.03 0.02 0.02 0.07 0.30 0.42 0.86 0.95 0.81 0.80 0.61 0.57 0.56 0.46 0.39 0.44 0.56 0.62 0.73 0.95 1.22 1.43 1.58 1.61 1.57 1.32 1.12 0.95 0.80 0.64 0.52 0.42 0.38 0.37 0.33 0.30 0.27 0.24 0.22 0.26 0.32 0.32 0.41 0.33 0.35 0.39 0.37 0.28
0.01 0.01 0.01 0.03 0.10 0.27 0.40 0.73 0.94 0.76 0.84 0.59 0.38 0.26 0.18 0.16 0.21 0.34 0.44 0.54 0.65 0.82 1.09 1.33 1.55 1.65 1.33 1.04 0.86 0.76 0.64 0.53 0.47 0.42 0.44 0.38 0.36 0.32 0.26 0.23 0.24 0.24 0.26 0.32 0.34 0.41 0.38 0.38 0.34
0.01 0.02 0.08 0.17 0.29 0.61 0.60 0.59 0.88 0.66 0.45 0.27 0.18 0.11 0.09 0.09 0.13 0.22 0.29 0.40 0.55 0.66 0.80 0.99 1.21 1.40 1.29 1.08 0.88 0.79 0.72 0.63 0.53 0.43 0.40 0.38 0.39 0.38 0.35 0.32 0.32 0.32 0.27 0.24 0.26 0.30 0.37 0.42 0.43
0.02 0.03 0.16 0.37 0.63 0.82 0.49 0.62 0.96 0.52 0.31 0.18 0.13 0.09 0.06 0.06 0.08 0.12 0.17 0.23 0.38 0.47 0.51 0.60 0.81 0.97 0.99 0.93 0.85 0.78 0.81 0.78 0.68 0.57 0.47 0.42 0.38 0.38 0.38 0.36 0.37 0.38 0.37 0.32 0.27 0.23 0.27 0.35 0.40
0.02 0.02 0.06 0.12 0.24 0.40 0.47 1.07 0.89 0.32 0.19 0.16 0.11 0.09 0.07 0.07 0.06 0.07 0.09 0.16 0.24 0.30 0.36 0.43 0.55 0.68 0.74 0.73 0.73 0.70 0.68 0.63 0.65 0.67 0.57 0.50 0.46 0.41 0.38 0.36 0.34 0.35 0.38 0.39 0.36 0.30 0.28 0.29 0.32
0.02 0.02 0.03 0.04 0.06 0.24 0.57 0.76 0.46 0.18 0.15 0.16 0.12 0.10 0.08 0.10 0.08 0.06 0.08 0.12 0.15 0.19 0.25 0.30 0.41 0.52 0.56 0.58 0.61 0.60 0.61 0.56 0.55 0.53 0.49 0.43 0.49 0.48 0.43 0.37 0.35 0.36 0.37 0.39 0.40 0.39 0.37 0.34 0.30
0.03 0.02 0.02 0.02 0.05 0.17 0.42 0.65 0.64 0.35 0.25 0.21 0.16 0.11 0.08 0.08 0.08 0.09 0.11 0.12 0.13 0.17 0.23 0.26 0.33 0.41 0.46 0.50 0.50 0.51 0.61 0.62 0.64 0.57 0.50 0.42 0.39 0.38 0.40 0.40 0.37 0.34 0.37 0.40 0.43 0.47 0.52 0.52 0.46
0.04 0.03 0.03 0.03 0.04 0.09 0.27 0.40 0.41 0.30 0.27 0.20 0.15 0.13 0.11 0.09 0.07 0.09 0.10 0.10 0.11 0.16 0.19 0.20 0.29 0.37 0.42 0.48 0.51 0.54 0.57 0.61 0.66 0.66 0.62 0.54 0.47 0.41 0.38 0.39 0.36 0.32 0.32 0.35 0.38 0.42 0.53 0.65 0.72
0.05 0.06 0.06 0.05 0.05 0.06 0.11 0.19 0.20 0.20 0.24 0.23 0.19 0.18 0.14 0.10 0.08 0.09 0.10 0.09 0.08 0.13 0.16 0.18 0.22 0.27 0.29 0.39 0.51 0.51 0.56 0.64 0.63 0.61 0.68 0.67 0.63 0.58 0.53 0.48 0.44 0.38 0.32 0.33 0.35 0.38 0.43 0.57 0.73